GW1995 Weather Reports


time (UTC)temp
C
wind
direction
speed
KPH
gust
KPH
rain 1hr
cm
rain 24hr
cm
rain mn
cm
humidity
%
barometer
mb
20260508150432 15 210 9.7 14.5 0.00 0.00 0.00 32 1006.9
20260508145928 15 237 3.2 4.8 0.00 0.00 0.00 33 1006.8
20260508145425 15 257 3.2 11.3 0.00 0.00 0.00 33 1006.8
20260508144921 14 283 3.2 8.0 0.00 0.00 0.00 33 1006.8
20260508144419 14 254 0.0 4.8 0.00 0.00 0.00 33 1007.0
20260508143917 13 227 4.8 14.5 0.00 0.00 0.00 32 1006.8
20260508143414 14 197 6.4 11.3 0.00 0.00 0.00 33 1006.8
20260508142910 14 258 3.2 8.0 0.00 0.00 0.00 32 1007.0
20260508142408 14 238 6.4 11.3 0.00 0.00 0.00 32 1007.0
20260508141904 14 243 3.2 8.0 0.00 0.00 0.00 32 1007.1
20260508141400 13 255 3.2 8.0 0.00 0.00 0.00 33 1007.1
20260508140858 13 194 6.4 8.0 0.00 0.00 0.00 32 1007.3
20260508140355 13 250 3.2 9.7 0.00 0.00 0.00 32 1007.3
20260508135851 13 244 3.2 8.0 0.00 0.00 0.00 32 1007.2
20260508135347 13 233 4.8 12.9 0.00 0.00 0.00 32 1007.3
20260508134843 13 207 8.0 11.3 0.00 0.00 0.00 32 1007.2
20260508134340 12 217 4.8 11.3 0.00 0.00 0.00 33 1007.2
20260508133837 12 196 6.4 16.1 0.00 0.00 0.00 34 1007.4
20260508133335 12 198 3.2 4.8 0.00 0.00 0.00 35 1007.3
20260508132832 11 209 1.6 9.7 0.00 0.00 0.00 36 1007.6
20260508132329 11 255 3.2 3.2 0.00 0.00 0.00 38 1007.4
20260508131826 11 188 3.2 3.2 0.00 0.00 0.00 39 1007.5
20260508131321 10 193 3.2 4.8 0.00 0.00 0.00 40 1007.6
20260508130818 10 216 1.6 3.2 0.00 0.00 0.00 41 1007.7
20260508130315 9 238 1.6 1.6 0.00 0.00 0.00 43 1007.7
20260508125811 8 228 1.6 1.6 0.00 0.00 0.00 44 1007.6
20260508125308 8 237 0.0 1.6 0.00 0.00 0.00 45 1007.5
20260508124806 8 208 1.6 3.2 0.00 0.00 0.00 46 1007.7
20260508124303 8 211 1.6 3.2 0.00 0.00 0.00 46 1007.8
20260508123801 7 204 1.6 1.6 0.00 0.00 0.00 46 1007.6
20260508123259 7 204 0.0 1.6 0.00 0.00 0.00 47 1007.7
20260508122755 7 204 3.2 3.2 0.00 0.00 0.00 46 1007.6
20260508122252 6 203 0.0 1.6 0.00 0.00 0.00 47 1007.6
20260508121749 6 202 0.0 0.0 0.00 0.00 0.00 47 1007.6
20260508121248 6 202 0.0 1.6 0.00 0.00 0.00 48 1007.7
20260508120744 6 203 0.0 1.6 0.00 0.00 0.00 47 1007.5
20260508120243 6 203 1.6 1.6 0.00 0.00 0.00 47 1007.6
20260508115740 6 205 1.6 1.6 0.00 0.00 0.00 47 1007.5
20260508115237 6 205 0.0 1.6 0.00 0.00 0.00 47 1007.6
20260508114727 6 205 0.0 0.0 0.00 0.00 0.00 47 1007.6
20260508114224 5 205 0.0 0.0 0.00 0.00 0.00 48 1007.7
20260508113721 5 205 0.0 0.0 0.00 0.00 0.00 50 1007.5
20260508113220 5 205 0.0 0.0 0.00 0.00 0.00 49 1007.5
20260508112715 5 205 0.0 0.0 0.00 0.00 0.00 50 1007.6
20260508112212 5 205 0.0 1.6 0.00 0.00 0.00 50 1007.5
20260508111709 5 205 1.6 1.6 0.00 0.00 0.00 51 1007.4
20260508111207 4 210 3.2 3.2 0.00 0.00 0.00 53 1007.4
20260508110704 4 209 1.6 1.6 0.00 0.00 0.00 54 1007.5
20260508110200 4 211 1.6 1.6 0.00 0.00 0.00 54 1007.3
20260508105655 4 211 1.6 1.6 0.00 0.00 0.00 53 1007.4
20260508105152 4 213 1.6 3.2 0.00 0.00 0.00 53 1007.4
20260508104649 4 213 1.6 1.6 0.00 0.00 0.00 54 1007.4
20260508104146 4 213 1.6 1.6 0.00 0.00 0.00 55 1007.4
20260508103643 4 213 0.0 1.6 0.00 0.00 0.00 54 1007.5
20260508103140 4 213 0.0 1.6 0.00 0.00 0.00 54 1007.8
20260508102637 4 213 1.6 1.6 0.00 0.00 0.00 54 1008.0
20260508102135 3 213 1.6 1.6 0.00 0.00 0.00 55 1007.7
20260508101632 3 213 0.0 1.6 0.00 0.00 0.00 56 1007.5
20260508101130 3 213 1.6 1.6 0.00 0.00 0.00 56 1007.6
20260508100627 3 213 0.0 1.6 0.00 0.00 0.00 55 1007.5
20260508100125 3 213 0.0 1.6 0.00 0.00 0.00 57 1007.6
20260508095621 2 213 1.6 1.6 0.00 0.00 0.00 60 1007.5
20260508095118 2 213 0.0 0.0 0.00 0.00 0.00 64 1007.5
20260508094615 2 213 0.0 0.0 0.00 0.00 0.00 62 1007.7
20260508094112 3 213 0.0 0.0 0.00 0.00 0.00 61 1007.6
20260508093609 3 213 0.0 0.0 0.00 0.00 0.00 59 1008.0
20260508093107 3 213 0.0 1.6 0.00 0.00 0.00 56 1007.6
20260508092604 3 213 0.0 0.0 0.00 0.00 0.00 59 1007.7
20260508092103 2 213 0.0 0.0 0.00 0.00 0.00 61 1007.6
20260508091559 2 213 0.0 0.0 0.00 0.00 0.00 63 1007.7
20260508091056 2 213 0.0 0.0 0.00 0.00 0.00 64 1007.7
20260508090554 2 213 0.0 0.0 0.00 0.00 0.00 63 1007.7
20260508090050 2 213 0.0 0.0 0.00 0.00 0.00 63 1007.6
20260508085547 2 213 0.0 0.0 0.00 0.00 0.00 63 1007.7
20260508085045 2 213 0.0 0.0 0.00 0.00 0.00 63 1007.7
20260508084541 2 213 0.0 0.0 0.00 0.00 0.00 63 1007.7
20260508084038 3 213 0.0 0.0 0.00 0.00 0.00 62 1007.8
20260508083536 3 213 0.0 0.0 0.00 0.00 0.00 62 1007.8
20260508083032 2 213 0.0 0.0 0.00 0.00 0.00 63 1007.8
20260508082528 2 213 0.0 0.0 0.00 0.00 0.00 62 1008.0
20260508082026 2 213 0.0 0.0 0.00 0.00 0.00 62 1008.0
20260508081523 3 213 0.0 0.0 0.00 0.00 0.00 62 1008.0
20260508081019 3 213 0.0 0.0 0.00 0.00 0.00 62 1007.8
20260508080517 3 213 0.0 0.0 0.00 0.00 0.00 62 1008.1
20260508080014 3 213 0.0 0.0 0.00 0.00 0.00 63 1008.2
20260508075511 3 213 0.0 0.0 0.00 0.00 0.00 62 1008.2
20260508075008 3 213 0.0 0.0 0.00 0.00 0.00 62 1008.2
20260508074506 3 213 0.0 0.0 0.00 0.00 0.00 62 1008.2
20260508074003 3 213 0.0 0.0 0.00 0.00 0.00 62 1008.2
20260508073500 3 213 0.0 0.0 0.00 0.00 0.00 62 1008.5
20260508072957 3 213 0.0 1.6 0.00 0.00 0.00 58 1008.1
20260508072453 3 213 0.0 0.0 0.00 0.00 0.00 60 1008.4
20260508071950 3 213 0.0 1.6 0.00 0.00 0.00 60 1008.3
20260508071448 3 213 0.0 1.6 0.00 0.00 0.00 61 1008.5
20260508070945 3 213 0.0 0.0 0.00 0.00 0.00 63 1008.7
20260508070443 3 213 0.0 0.0 0.00 0.00 0.00 63 1008.4
20260508065941 3 213 0.0 0.0 0.00 0.00 0.00 62 1008.5
20260508065439 3 213 0.0 0.0 0.00 0.00 0.00 61 1008.5
20260508064936 3 213 0.0 0.0 0.00 0.00 0.00 59 1008.5
20260508064434 4 213 0.0 0.0 0.00 0.00 0.00 60 1008.5
20260508063931 4 213 0.0 0.0 0.00 0.00 0.00 59 1008.6
20260508063429 4 213 0.0 0.0 0.00 0.00 0.00 57 1008.7
20260508062926 5 213 0.0 1.6 0.00 0.00 0.00 57 1008.7
20260508062424 5 213 0.0 1.6 0.00 0.00 0.00 57 1008.7
20260508061921 4 213 1.6 1.6 0.00 0.00 0.00 54 1008.8
20260508061418 4 213 0.0 1.6 0.00 0.00 0.00 59 1008.8
20260508060914 4 213 0.0 0.0 0.00 0.00 0.00 59 1008.9
20260508060412 4 213 0.0 0.0 0.00 0.00 0.00 59 1008.9
20260508055907 5 213 0.0 0.0 0.00 0.00 0.00 59 1008.8
20260508055405 5 213 0.0 0.0 0.00 0.00 0.00 58 1008.8
20260508054901 5 213 0.0 1.6 0.00 0.00 0.00 58 1008.8
20260508054358 5 213 0.0 1.6 0.00 0.00 0.00 56 1008.8
20260508053855 5 213 0.0 1.6 0.00 0.00 0.00 58 1008.8
20260508053352 5 213 1.6 1.6 0.00 0.00 0.00 58 1008.7
20260508052850 5 213 0.0 0.0 0.00 0.00 0.00 57 1008.9
20260508052347 5 213 0.0 0.0 0.00 0.00 0.00 56 1008.9
20260508051843 5 213 0.0 0.0 0.00 0.00 0.00 56 1008.9
20260508051338 5 213 0.0 1.6 0.00 0.00 0.00 55 1008.8
20260508050835 6 213 0.0 0.0 0.00 0.00 0.00 53 1008.9
20260508050333 6 213 0.0 0.0 0.00 0.00 0.00 51 1008.7
20260508045828 6 213 1.6 1.6 0.00 0.00 0.00 50 1008.8
20260508045326 6 213 0.0 1.6 0.00 0.00 0.00 51 1009.1
20260508044823 6 213 0.0 1.6 0.00 0.00 0.00 51 1008.9
20260508044320 6 213 1.6 1.6 0.00 0.00 0.00 52 1008.9
20260508043816 6 213 1.6 1.6 0.00 0.00 0.00 51 1009.1
20260508043313 6 213 1.6 3.2 0.00 0.00 0.00 50 1009.2
20260508042810 6 211 1.6 3.2 0.00 0.00 0.00 50 1009.2
20260508042308 6 213 1.6 1.6 0.00 0.00 0.00 49 1009.2
20260508041804 6 214 1.6 1.6 0.00 0.00 0.00 48 1009.3
20260508041301 6 214 1.6 3.2 0.00 0.00 0.00 49 1009.1
20260508040757 6 218 1.6 1.6 0.00 0.00 0.00 49 1009.3
20260508040255 6 219 1.6 1.6 0.00 0.00 0.00 49 1009.3
20260508035752 6 220 1.6 3.2 0.00 0.00 0.00 47 1009.3
20260508035249 6 224 1.6 3.2 0.00 0.00 0.00 48 1009.1
20260508034745 7 225 1.6 1.6 0.00 0.00 0.00 49 1009.3
20260508034243 7 225 1.6 1.6 0.00 0.00 0.00 49 1009.5
20260508033740 7 225 1.6 1.6 0.00 0.00 0.00 47 1009.6
20260508033238 7 225 1.6 3.2 0.00 0.00 0.00 46 1009.4
20260508032735 7 228 1.6 1.6 0.00 0.00 0.00 46 1009.5
20260508032232 7 228 1.6 1.6 0.00 0.00 0.00 47 1009.5
20260508031729 7 228 1.6 1.6 0.00 0.00 0.00 47 1009.3
20260508031225 7 228 1.6 1.6 0.00 0.00 0.00 44 1009.4
20260508030722 8 221 1.6 1.6 0.00 0.00 0.00 46 1009.5
20260508030220 8 221 1.6 3.2 0.00 0.00 0.00 43 1009.4
20260508025715 8 225 1.6 3.2 0.00 0.00 0.00 44 1009.5
20260508025213 8 228 1.6 1.6 0.00 0.00 0.00 43 1009.4
20260508024709 8 228 1.6 1.6 0.00 0.00 0.00 41 1009.3
20260508024206 8 242 1.6 1.6 0.00 0.00 0.00 42 1009.3
20260508023702 8 242 1.6 1.6 0.00 0.00 0.00 41 1009.4
20260508023200 8 243 1.6 1.6 0.00 0.00 0.00 40 1009.5
20260508022655 9 243 1.6 1.6 0.00 0.00 0.00 40 1009.4
20260508022153 9 243 1.6 1.6 0.00 0.00 0.00 39 1009.4
20260508021649 10 244 1.6 1.6 0.00 0.00 0.00 38 1009.2
20260508021144 10 243 0.0 1.6 0.00 0.00 0.00 38 1009.2
20260508020642 10 243 1.6 1.6 0.00 0.00 0.00 35 1009.1
20260508020140 10 243 1.6 1.6 0.00 0.00 0.00 35 1009.0
20260508015637 10 243 1.6 1.6 0.00 0.00 0.00 35 1009.0
20260508015134 10 243 1.6 1.6 0.00 0.00 0.00 34 1009.1
20260508014630 11 243 1.6 1.6 0.00 0.00 0.00 33 1009.1
20260508014126 11 244 1.6 1.6 0.00 0.00 0.00 33 1009.0
20260508013623 11 244 0.0 1.6 0.00 0.00 0.00 33 1008.9
20260508013120 11 244 0.0 0.0 0.00 0.00 0.00 32 1009.0
20260508012617 11 244 1.6 1.6 0.00 0.00 0.00 32 1008.9
20260508012114 12 244 0.0 0.0 0.00 0.00 0.00 32 1008.8
20260508011613 12 244 0.0 1.6 0.00 0.00 0.00 30 1008.8
20260508011109 12 245 1.6 1.6 0.00 0.00 0.00 29 1008.9
20260508010606 13 264 1.6 1.6 0.00 0.00 0.00 28 1008.9
20260508010105 13 283 1.6 3.2 0.00 0.00 0.00 28 1008.8
20260508005600 13 268 1.6 1.6 0.00 0.00 0.00 27 1009.0
20260508005057 13 276 1.6 8.0 0.00 0.00 0.00 27 1008.8
20260508004553 13 258 0.0 1.6 0.00 0.00 0.00 28 1008.8
20260508004050 13 269 0.0 3.2 0.00 0.00 0.00 27 1008.8
20260508003546 13 190 4.8 4.8 0.00 0.00 0.00 26 1008.9
20260508003044 13 326 4.8 4.8 0.00 0.00 0.00 26 1008.8
20260508002540 13 276 3.2 4.8 0.00 0.00 0.00 26 1008.9
20260508002038 14 218 3.2 3.2 0.00 0.00 0.00 26 1008.9
20260508001533 13 246 1.6 9.7 0.00 0.00 0.00 26 1008.8
20260508001029 14 276 1.6 4.8 0.00 0.00 0.00 26 1008.9
20260508000525 14 264 1.6 3.2 0.00 0.00 0.00 26 1008.8
20260508000023 14 276 1.6 3.2 0.00 0.00 0.00 25 1009.0
20260507235519 14 254 3.2 4.8 0.00 0.00 0.00 26 1009.1
20260507235017 13 312 6.4 12.9 0.00 0.00 0.00 25 1009.1
20260507234513 14 308 3.2 11.3 0.00 0.00 0.00 25 1009.1
20260507234010 14 246 3.2 4.8 0.00 0.00 0.00 25 1009.1
20260507233506 14 255 1.6 4.8 0.00 0.00 0.00 25 1009.1
20260507233005 14 354 4.8 8.0 0.00 0.00 0.00 25 1009.3
20260507232501 15 332 1.6 9.7 0.00 0.00 0.00 25 1009.3
20260507231959 14 235 4.8 4.8 0.00 0.00 0.00 26 1009.2
20260507231455 14 216 1.6 4.8 0.00 0.00 0.00 23 1009.3
20260507230952 14 265 4.8 11.3 0.00 0.00 0.00 24 1009.2
20260507230449 14 289 1.6 4.8 0.00 0.00 0.00 25 1009.2
20260507225944 13 301 3.2 8.0 0.00 0.00 0.00 25 1009.4
20260507225440 14 264 6.4 12.9 0.00 0.00 0.00 24 1009.4
20260507224937 14 251 3.2 8.0 0.00 0.00 0.00 24 1009.3
20260507224432 14 313 4.8 4.8 0.00 0.00 0.00 24 1009.4
20260507223930 14 289 3.2 11.3 0.00 0.00 0.00 24 1009.4
20260507223425 14 291 6.4 11.3 0.00 0.00 0.00 24 1009.5
20260507222922 14 310 4.8 4.8 0.00 0.00 0.00 24 1009.5
20260507222419 13 331 9.7 12.9 0.00 0.00 0.00 25 1009.6
20260507221916 14 318 4.8 11.3 0.00 0.00 0.00 24 1009.4
20260507221412 14 260 1.6 9.7 0.00 0.00 0.00 25 1009.5
20260507220908 15 8 4.8 8.0 0.00 0.00 0.00 24 1009.6
20260507220407 15 242 1.6 8.0 0.00 0.00 0.00 24 1009.6
20260507215903 14 303 3.2 8.0 0.00 0.00 0.00 25 1009.6
20260507215400 14 291 6.4 9.7 0.00 0.00 0.00 24 1009.6
20260507214857 14 258 3.2 11.3 0.00 0.00 0.00 26 1009.6
20260507214354 13 282 3.2 8.0 0.00 0.00 0.00 26 1009.5
20260507213850 13 301 1.6 9.7 0.00 0.00 0.00 25 1009.9
20260507213347 13 261 4.8 11.3 0.00 0.00 0.00 25 1009.7
20260507212844 13 298 6.4 9.7 0.00 0.00 0.00 26 1009.7
20260507212339 13 266 4.8 11.3 0.00 0.00 0.00 25 1009.9
20260507211836 13 278 6.4 9.7 0.00 0.00 0.00 25 1009.7
20260507211333 13 242 4.8 14.5 0.00 0.00 0.00 27 1009.8
20260507210830 14 230 4.8 4.8 0.00 0.00 0.00 24 1009.9
20260507210327 13 231 4.8 8.0 0.00 0.00 0.00 26 1009.7
20260507205823 13 245 6.4 11.3 0.00 0.00 0.00 26 1010.0
20260507205321 13 261 1.6 9.7 0.00 0.00 0.00 26 1010.0
20260507204816 13 223 4.8 9.7 0.00 0.00 0.00 25 1010.3
20260507204314 13 273 3.2 8.0 0.00 0.00 0.00 25 1010.1
20260507203812 12 187 1.6 11.3 0.00 0.00 0.00 26 1010.1
20260507203309 13 270 1.6 8.0 0.00 0.00 0.00 25 1010.2
20260507202805 13 286 3.2 12.9 0.00 0.00 0.00 25 1010.3
20260507202306 13 321 4.8 11.3 0.00 0.00 0.00 25 1010.3
20260507201756 13 247 1.6 12.9 0.00 0.00 0.00 25 1010.4
20260507201253 13 284 8.0 11.3 0.00 0.00 0.00 25 1010.5
20260507200750 12 278 4.8 11.3 0.00 0.00 0.00 26 1010.4
20260507200246 12 231 1.6 3.2 0.00 0.00 0.00 25 1010.5
20260507195742 13 332 4.8 11.3 0.00 0.00 0.00 26 1010.8
20260507195239 13 269 6.4 11.3 0.00 0.00 0.00 26 1010.4
20260507194737 12 253 1.6 9.7 0.00 0.00 0.00 25 1010.4
20260507194232 12 244 4.8 8.0 0.00 0.00 0.00 29 1010.4
20260507193729 12 242 6.4 11.3 0.00 0.00 0.00 26 1010.7
20260507193226 12 289 4.8 16.1 0.00 0.00 0.00 25 1010.6
20260507192722 12 282 4.8 9.7 0.00 0.00 0.00 25 1010.7
20260507192219 12 310 6.4 9.7 0.00 0.00 0.00 27 1010.6
20260507191715 12 268 3.2 4.8 0.00 0.00 0.00 27 1010.7
20260507191212 12 279 3.2 11.3 0.00 0.00 0.00 26 1010.7
20260507190709 12 276 1.6 4.8 0.00 0.00 0.00 27 1010.8
20260507190208 11 245 3.2 14.5 0.00 0.00 0.00 29 1010.8
20260507185706 12 60 4.8 9.7 0.00 0.00 0.00 28 1010.8
20260507185202 11 282 4.8 12.9 0.00 0.00 0.00 31 1010.8
20260507184700 11 28 9.7 11.3 0.00 0.00 0.00 29 1010.7
20260507184158 11 260 1.6 8.0 0.00 0.00 0.00 28 1010.7
20260507183653 12 324 4.8 4.8 0.00 0.00 0.00 29 1010.8
20260507183151 11 34 3.2 4.8 0.00 0.00 0.00 30 1010.9
20260507182648 11 295 6.4 9.7 0.00 0.00 0.00 29 1011.0
20260507182143 11 273 6.4 11.3 0.00 0.00 0.00 29 1011.1
20260507181640 12 5 4.8 8.0 0.00 0.00 0.00 31 1010.9
20260507181136 11 270 8.0 9.7 0.00 0.00 0.00 31 1011.1
20260507180633 11 252 3.2 12.9 0.00 0.00 0.00 30 1010.9
20260507180130 11 49 4.8 9.7 0.00 0.00 0.00 31 1010.9
20260507175626 10 16 4.8 9.7 0.00 0.00 0.00 32 1011.0
20260507175123 11 290 3.2 11.3 0.00 0.00 0.00 31 1011.1
20260507174620 10 76 1.6 4.8 0.00 0.00 0.00 32 1011.1
20260507174118 11 223 3.2 3.2 0.00 0.00 0.00 32 1011.0
20260507173615 10 296 4.8 8.0 0.00 0.00 0.00 31 1011.4
20260507173112 10 321 6.4 11.3 0.00 0.00 0.00 32 1011.5
20260507172608 10 206 0.0 4.8 0.00 0.00 0.00 32 1011.4
20260507172106 10 33 4.8 12.9 0.00 0.00 0.00 31 1011.5
20260507171600 10 18 4.8 16.1 0.00 0.00 0.00 31 1011.4
20260507171058 10 60 6.4 12.9 0.00 0.00 0.00 32 1011.7
20260507170555 10 8 4.8 4.8 0.00 0.00 0.00 32 1011.6
20260507170051 10 75 9.7 14.5 0.00 0.00 0.00 31 1011.6
20260507165547 10 342 8.0 11.3 0.00 0.00 0.00 32 1011.8
20260507165038 10 273 4.8 14.5 0.00 0.00 0.00 32 1011.7
20260507164534 10 279 6.4 8.0 0.00 0.00 0.00 33 1011.8
20260507164031 10 42 6.4 12.9 0.00 0.00 0.00 34 1011.8
20260507163528 10 308 3.2 4.8 0.00 0.00 0.00 34 1011.7
20260507163026 10 320 4.8 12.9 0.00 0.00 0.00 34 1011.9
20260507162521 10 276 3.2 11.3 0.00 0.00 0.00 36 1011.8
20260507162018 10 351 3.2 9.7 0.00 0.00 0.00 34 1011.8
20260507161514 10 309 4.8 4.8 0.00 0.00 0.00 36 1011.9
20260507161012 9 53 8.0 11.3 0.00 0.00 0.00 36 1012.1
20260507160507 8 306 11.3 12.9 0.00 0.00 0.00 37 1012.0
20260507160004 8 7 0.0 8.0 0.00 0.00 0.00 37 1011.9
20260507155459 9 81 6.4 12.9 0.00 0.00 0.00 37 1012.2
20260507154956 8 49 8.0 12.9 0.00 0.00 0.00 36 1012.1
20260507154453 8 26 4.8 8.0 0.00 0.00 0.00 36 1012.1
20260507153950 8 57 8.0 11.3 0.00 0.00 0.00 36 1012.2
20260507153447 8 33 8.0 9.7 0.00 0.00 0.00 37 1012.2
20260507152943 8 266 3.2 9.7 0.00 0.00 0.00 39 1012.1
20260507152439 7 43 4.8 9.7 0.00 0.00 0.00 40 1012.2
20260507151936 8 51 1.6 4.8 0.00 0.00 0.00 38 1012.3
20260507151432 8 47 8.0 12.9 0.00 0.00 0.00 38 1012.2
20260507150929 8 294 1.6 4.8 0.00 0.00 0.00 39 1012.3